| time (UTC) | temp C | wind direction | speed KPH | gust KPH | rain 1hr cm | rain 24hr cm | rain mn cm | humidity % | barometer mb |
| 20260509084517 | 8 | 90 | 3.2 | 6.4 | 0.00 | 0.00 | 0.00 | 55 | 1002.3 |
| 20260509083518 | 8 | 90 | 3.2 | 6.4 | 0.00 | 0.00 | 0.00 | 56 | 1002.2 |
| 20260509082517 | 8 | 90 | 3.2 | 4.8 | 0.00 | 0.00 | 0.00 | 55 | 1002.2 |
| 20260509081517 | 8 | 90 | 3.2 | 6.4 | 0.00 | 0.00 | 0.00 | 56 | 1002.1 |
| 20260509080538 | 8 | 90 | 3.2 | 6.4 | 0.00 | 0.00 | 0.00 | 56 | 1002.2 |
| 20260509075518 | 8 | 90 | 3.2 | 4.8 | 0.00 | 0.00 | 0.00 | 56 | 1002.3 |
| 20260509074518 | 8 | 90 | 1.6 | 3.2 | 0.00 | 0.00 | 0.00 | 57 | 1002.1 |
| 20260509073518 | 8 | 90 | 3.2 | 4.8 | 0.00 | 0.00 | 0.00 | 58 | 1002.2 |
| 20260509072537 | 8 | 0.0 | 0.0 | 0.00 | 0.00 | 0.00 | 56 | 1002.6 | |
| 20260509071517 | 8 | 0.0 | 0.0 | 0.00 | 0.00 | 0.00 | 56 | 1002.9 | |
| 20260509070517 | 8 | 0.0 | 0.0 | 0.00 | 0.00 | 0.00 | 58 | 1002.9 | |
| 20260509065519 | 9 | 0.0 | 0.0 | 0.00 | 0.00 | 0.00 | 57 | 1002.9 | |
| 20260509064518 | 9 | 0.0 | 0.0 | 0.00 | 0.00 | 0.00 | 55 | 1003.2 | |
| 20260509063518 | 10 | 0.0 | 0.0 | 0.00 | 0.00 | 0.00 | 54 | 1003.3 | |
| 20260509062517 | 10 | 135 | 1.6 | 3.2 | 0.00 | 0.00 | 0.00 | 53 | 1003.4 |
| 20260509061517 | 10 | 0.0 | 0.0 | 0.00 | 0.00 | 0.00 | 53 | 1003.6 | |
| 20260509060517 | 11 | 0.0 | 0.0 | 0.00 | 0.00 | 0.00 | 52 | 1003.6 | |
| 20260509055517 | 11 | 0.0 | 0.0 | 0.00 | 0.00 | 0.00 | 51 | 1004.0 | |
| 20260509054517 | 11 | 0.0 | 0.0 | 0.00 | 0.00 | 0.00 | 51 | 1003.8 | |
| 20260509053517 | 12 | 0.0 | 0.0 | 0.00 | 0.00 | 0.00 | 47 | 1004.0 | |
| 20260509052517 | 12 | 0.0 | 0.0 | 0.00 | 0.00 | 0.00 | 45 | 1004.2 | |
| 20260509051517 | 13 | 0.0 | 0.0 | 0.00 | 0.00 | 0.00 | 44 | 1004.2 | |
| 20260509050517 | 13 | 0.0 | 0.0 | 0.00 | 0.00 | 0.00 | 41 | 1004.2 | |
| 20260509045518 | 13 | 0.0 | 0.0 | 0.00 | 0.00 | 0.00 | 39 | 1004.4 | |
| 20260509044517 | 14 | 135 | 1.6 | 3.2 | 0.00 | 0.00 | 0.00 | 37 | 1004.4 |
| 20260509043516 | 14 | 135 | 1.6 | 3.2 | 0.00 | 0.00 | 0.00 | 37 | 1004.5 |
| 20260509042517 | 15 | 135 | 1.6 | 3.2 | 0.00 | 0.00 | 0.00 | 36 | 1004.5 |
| 20260509041518 | 15 | 135 | 1.6 | 3.2 | 0.00 | 0.00 | 0.00 | 36 | 1004.5 |
| 20260509040537 | 15 | 135 | 1.6 | 4.8 | 0.00 | 0.00 | 0.00 | 35 | 1004.6 |
| 20260509035518 | 16 | 0.0 | 3.2 | 0.00 | 0.00 | 0.00 | 34 | 1004.6 | |
| 20260509034518 | 16 | 0.0 | 1.6 | 0.00 | 0.00 | 0.00 | 33 | 1004.5 | |
| 20260509033518 | 16 | 135 | 1.6 | 4.8 | 0.00 | 0.00 | 0.00 | 33 | 1004.4 |
| 20260509032518 | 16 | 135 | 1.6 | 4.8 | 0.00 | 0.00 | 0.00 | 32 | 1004.4 |
| 20260509031537 | 17 | 158 | 3.2 | 8.0 | 0.00 | 0.00 | 0.00 | 32 | 1004.4 |
| 20260509030517 | 17 | 135 | 4.8 | 14.5 | 0.00 | 0.00 | 0.00 | 31 | 1004.3 |
| 20260509025517 | 17 | 135 | 4.8 | 11.3 | 0.00 | 0.00 | 0.00 | 30 | 1004.2 |
| 20260509024518 | 17 | 135 | 4.8 | 14.5 | 0.00 | 0.00 | 0.00 | 30 | 1004.2 |
| 20260509023518 | 18 | 135 | 4.8 | 12.9 | 0.00 | 0.00 | 0.00 | 29 | 1004.0 |
| 20260509022517 | 18 | 158 | 6.4 | 16.1 | 0.00 | 0.00 | 0.00 | 28 | 1003.8 |
| 20260509021517 | 18 | 135 | 6.4 | 12.9 | 0.00 | 0.00 | 0.00 | 27 | 1003.7 |
| 20260509020519 | 19 | 135 | 4.8 | 14.5 | 0.00 | 0.00 | 0.00 | 26 | 1003.4 |
| 20260509015517 | 19 | 135 | 8.0 | 16.1 | 0.00 | 0.00 | 0.00 | 26 | 1003.2 |
| 20260509014517 | 20 | 135 | 6.4 | 14.5 | 0.00 | 0.00 | 0.00 | 25 | 1002.9 |
| 20260509013517 | 20 | 135 | 6.4 | 17.7 | 0.00 | 0.00 | 0.00 | 25 | 1002.8 |
| 20260509012517 | 20 | 135 | 8.0 | 19.3 | 0.00 | 0.00 | 0.00 | 24 | 1002.8 |
| 20260509011537 | 21 | 158 | 8.0 | 19.3 | 0.00 | 0.00 | 0.00 | 24 | 1002.6 |
| 20260509010517 | 21 | 135 | 9.7 | 17.7 | 0.00 | 0.00 | 0.00 | 25 | 1002.5 |
| 20260509005517 | 21 | 135 | 11.3 | 22.5 | 0.00 | 0.00 | 0.00 | 24 | 1002.4 |
| 20260509004517 | 21 | 135 | 6.4 | 16.1 | 0.00 | 0.00 | 0.00 | 25 | 1002.3 |
| 20260509003517 | 22 | 135 | 11.3 | 27.4 | 0.00 | 0.00 | 0.00 | 25 | 1002.1 |
| 20260509002537 | 22 | 135 | 12.9 | 25.7 | 0.00 | 0.00 | 0.00 | 26 | 1001.9 |
| 20260509001518 | 22 | 135 | 9.7 | 17.7 | 0.00 | 0.00 | 0.00 | 27 | 1001.9 |
| 20260509000517 | 22 | 135 | 11.3 | 24.1 | 0.00 | 0.00 | 0.00 | 26 | 1001.9 |
| 20260508235517 | 22 | 135 | 12.9 | 27.4 | 0.00 | 0.00 | 0.00 | 26 | 1001.8 |
| 20260508234518 | 23 | 135 | 12.9 | 25.7 | 0.00 | 0.00 | 0.00 | 25 | 1001.9 |
| 20260508233517 | 23 | 135 | 14.5 | 25.7 | 0.00 | 0.00 | 0.00 | 25 | 1002.0 |
| 20260508232517 | 23 | 135 | 9.7 | 19.3 | 0.00 | 0.00 | 0.00 | 26 | 1001.9 |
| 20260508231557 | 23 | 135 | 14.5 | 35.4 | 0.00 | 0.00 | 0.00 | 25 | 1002.0 |
| 20260508230517 | 23 | 135 | 11.3 | 22.5 | 0.00 | 0.00 | 0.00 | 25 | 1002.1 |
| 20260508225537 | 23 | 135 | 11.3 | 25.7 | 0.00 | 0.00 | 0.00 | 25 | 1001.9 |
| 20260508224538 | 23 | 135 | 11.3 | 25.7 | 0.00 | 0.00 | 0.00 | 24 | 1001.7 |
| 20260508223517 | 24 | 135 | 14.5 | 24.1 | 0.00 | 0.00 | 0.00 | 23 | 1001.6 |
| 20260508222517 | 24 | 135 | 14.5 | 27.4 | 0.00 | 0.00 | 0.00 | 23 | 1001.6 |
| 20260508221517 | 24 | 135 | 9.7 | 17.7 | 0.00 | 0.00 | 0.00 | 23 | 1001.5 |
| 20260508220517 | 25 | 135 | 12.9 | 22.5 | 0.00 | 0.00 | 0.00 | 22 | 1001.5 |
| 20260508215517 | 25 | 135 | 11.3 | 19.3 | 0.00 | 0.00 | 0.00 | 21 | 1001.7 |
| 20260508214517 | 26 | 135 | 8.0 | 16.1 | 0.00 | 0.00 | 0.00 | 22 | 1001.8 |
| 20260508213517 | 25 | 113 | 8.0 | 17.7 | 0.00 | 0.00 | 0.00 | 22 | 1002.0 |
| 20260508212537 | 25 | 135 | 9.7 | 17.7 | 0.00 | 0.00 | 0.00 | 22 | 1002.0 |
| 20260508211517 | 24 | 135 | 8.0 | 16.1 | 0.00 | 0.00 | 0.00 | 23 | 1002.2 |
| 20260508210517 | 24 | 135 | 11.3 | 24.1 | 0.00 | 0.00 | 0.00 | 22 | 1002.5 |
| 20260508205517 | 25 | 113 | 9.7 | 20.9 | 0.00 | 0.00 | 0.00 | 21 | 1002.6 |
| 20260508204537 | 24 | 135 | 9.7 | 17.7 | 0.00 | 0.00 | 0.00 | 24 | 1002.8 |
| 20260508203517 | 23 | 135 | 4.8 | 8.0 | 0.00 | 0.00 | 0.00 | 23 | 1003.0 |
| 20260508202517 | 23 | 135 | 9.7 | 16.1 | 0.00 | 0.00 | 0.00 | 22 | 1003.2 |
| 20260508201517 | 24 | 135 | 4.8 | 14.5 | 0.00 | 0.00 | 0.00 | 21 | 1003.4 |
| 20260508200517 | 24 | 113 | 6.4 | 14.5 | 0.00 | 0.00 | 0.00 | 21 | 1003.5 |
| 20260508195517 | 25 | 135 | 11.3 | 22.5 | 0.00 | 0.00 | 0.00 | 21 | 1003.7 |
| 20260508194537 | 24 | 135 | 9.7 | 20.9 | 0.00 | 0.00 | 0.00 | 21 | 1003.6 |
| 20260508193516 | 24 | 135 | 8.0 | 14.5 | 0.00 | 0.00 | 0.00 | 22 | 1003.9 |
| 20260508192516 | 24 | 135 | 8.0 | 12.9 | 0.00 | 0.00 | 0.00 | 22 | 1004.0 |
| 20260508191516 | 24 | 135 | 9.7 | 19.3 | 0.00 | 0.00 | 0.00 | 21 | 1004.0 |
| 20260508190517 | 25 | 135 | 14.5 | 25.7 | 0.00 | 0.00 | 0.00 | 20 | 1004.2 |
| 20260508185517 | 25 | 135 | 12.9 | 20.9 | 0.00 | 0.00 | 0.00 | 20 | 1004.3 |
| 20260508184517 | 25 | 135 | 6.4 | 19.3 | 0.00 | 0.00 | 0.00 | 20 | 1004.2 |
| 20260508183516 | 25 | 113 | 11.3 | 24.1 | 0.00 | 0.00 | 0.00 | 20 | 1004.6 |
| 20260508182516 | 25 | 135 | 8.0 | 17.7 | 0.00 | 0.00 | 0.00 | 20 | 1004.6 |
| 20260508181517 | 25 | 113 | 9.7 | 19.3 | 0.00 | 0.00 | 0.00 | 19 | 1004.8 |
| 20260508180517 | 25 | 135 | 12.9 | 24.1 | 0.00 | 0.00 | 0.00 | 19 | 1004.9 |
| 20260508175517 | 25 | 113 | 8.0 | 12.9 | 0.00 | 0.00 | 0.00 | 18 | 1005.1 |
| 20260508174517 | 24 | 135 | 9.7 | 20.9 | 0.00 | 0.00 | 0.00 | 20 | 1005.4 |
| 20260508173517 | 24 | 135 | 8.0 | 17.7 | 0.00 | 0.00 | 0.00 | 20 | 1005.5 |
| 20260508172537 | 24 | 45 | 3.2 | 8.0 | 0.00 | 0.00 | 0.00 | 21 | 1005.8 |
| 20260508171517 | 23 | 135 | 9.7 | 17.7 | 0.00 | 0.00 | 0.00 | 21 | 1006.0 |
| 20260508170517 | 23 | 135 | 11.3 | 19.3 | 0.00 | 0.00 | 0.00 | 21 | 1006.1 |
| 20260508165516 | 23 | 135 | 9.7 | 16.1 | 0.00 | 0.00 | 0.00 | 22 | 1006.4 |
| 20260508164517 | 23 | 113 | 6.4 | 14.5 | 0.00 | 0.00 | 0.00 | 20 | 1006.5 |
| 20260508163517 | 22 | 135 | 9.7 | 17.7 | 0.00 | 0.00 | 0.00 | 22 | 1006.8 |
| 20260508162536 | 21 | 135 | 9.7 | 16.1 | 0.00 | 0.00 | 0.00 | 24 | 1006.8 |
| 20260508161517 | 21 | 135 | 6.4 | 14.5 | 0.00 | 0.00 | 0.00 | 22 | 1007.0 |
| 20260508160536 | 21 | 135 | 9.7 | 17.7 | 0.00 | 0.00 | 0.00 | 24 | 1007.1 |
| 20260508155516 | 21 | 135 | 9.7 | 22.5 | 0.00 | 0.00 | 0.00 | 23 | 1007.1 |
| 20260508154516 | 20 | 135 | 6.4 | 12.9 | 0.00 | 0.00 | 0.00 | 25 | 1007.2 |
| 20260508153516 | 20 | 135 | 8.0 | 17.7 | 0.00 | 0.00 | 0.00 | 25 | 1007.2 |
| 20260508152517 | 20 | 135 | 4.8 | 16.1 | 0.00 | 0.00 | 0.00 | 27 | 1007.2 |
| 20260508151517 | 19 | 113 | 6.4 | 19.3 | 0.00 | 0.00 | 0.00 | 26 | 1007.4 |
| 20260508150537 | 18 | 113 | 8.0 | 16.1 | 0.00 | 0.00 | 0.00 | 28 | 1007.5 |
| 20260508145517 | 17 | 113 | 6.4 | 12.9 | 0.00 | 0.00 | 0.00 | 30 | 1007.7 |
| 20260508144517 | 17 | 135 | 8.0 | 16.1 | 0.00 | 0.00 | 0.00 | 31 | 1007.8 |
| 20260508143536 | 17 | 113 | 6.4 | 11.3 | 0.00 | 0.00 | 0.00 | 33 | 1007.8 |
| 20260508142516 | 16 | 113 | 6.4 | 14.5 | 0.00 | 0.00 | 0.00 | 35 | 1007.9 |
| 20260508141537 | 15 | 113 | 4.8 | 9.7 | 0.00 | 0.00 | 0.00 | 38 | 1008.0 |
| 20260508140517 | 14 | 90 | 4.8 | 9.7 | 0.00 | 0.00 | 0.00 | 41 | 1008.1 |
| 20260508135516 | 13 | 113 | 3.2 | 6.4 | 0.00 | 0.00 | 0.00 | 42 | 1008.1 |
| 20260508134536 | 12 | 90 | 4.8 | 9.7 | 0.00 | 0.00 | 0.00 | 44 | 1008.1 |
| 20260508133536 | 12 | 90 | 6.4 | 14.5 | 0.00 | 0.00 | 0.00 | 45 | 1008.2 |
| 20260508132516 | 11 | 90 | 6.4 | 12.9 | 0.00 | 0.00 | 0.00 | 45 | 1008.2 |
| 20260508131516 | 11 | 90 | 9.7 | 14.5 | 0.00 | 0.00 | 0.00 | 47 | 1008.3 |
| 20260508130516 | 11 | 90 | 6.4 | 12.9 | 0.00 | 0.00 | 0.00 | 47 | 1008.3 |
| 20260508125516 | 10 | 90 | 8.0 | 16.1 | 0.00 | 0.00 | 0.00 | 49 | 1008.3 |
| 20260508124516 | 9 | 90 | 8.0 | 12.9 | 0.00 | 0.00 | 0.00 | 50 | 1008.3 |
| 20260508123516 | 8 | 90 | 6.4 | 11.3 | 0.00 | 0.00 | 0.00 | 53 | 1008.3 |
| 20260508122516 | 7 | 90 | 4.8 | 9.7 | 0.00 | 0.00 | 0.00 | 53 | 1008.2 |
| 20260508121516 | 7 | 90 | 8.0 | 12.9 | 0.00 | 0.00 | 0.00 | 53 | 1008.3 |
| 20260508120517 | 7 | 90 | 9.7 | 11.3 | 0.00 | 0.00 | 0.00 | 54 | 1008.1 |
| 20260508115517 | 6 | 90 | 9.7 | 12.9 | 0.00 | 0.00 | 0.00 | 55 | 1008.1 |
| 20260508114516 | 6 | 113 | 8.0 | 11.3 | 0.00 | 0.00 | 0.00 | 56 | 1008.0 |
| 20260508113536 | 6 | 90 | 8.0 | 12.9 | 0.00 | 0.00 | 0.00 | 56 | 1008.0 |
| 20260508112516 | 6 | 90 | 9.7 | 12.9 | 0.00 | 0.00 | 0.00 | 57 | 1008.1 |
| 20260508111516 | 5 | 90 | 8.0 | 12.9 | 0.00 | 0.00 | 0.00 | 58 | 1008.2 |
| 20260508110516 | 5 | 90 | 4.8 | 9.7 | 0.00 | 0.00 | 0.00 | 60 | 1008.0 |
| 20260508105536 | 5 | 90 | 4.8 | 6.4 | 0.00 | 0.00 | 0.00 | 61 | 1008.2 |
| 20260508104516 | 5 | 90 | 3.2 | 4.8 | 0.00 | 0.00 | 0.00 | 61 | 1008.1 |
| 20260508103536 | 5 | 90 | 3.2 | 6.4 | 0.00 | 0.00 | 0.00 | 61 | 1008.2 |
| 20260508102516 | 4 | 90 | 6.4 | 11.3 | 0.00 | 0.00 | 0.00 | 63 | 1008.2 |
| 20260508101516 | 3 | 90 | 3.2 | 6.4 | 0.00 | 0.00 | 0.00 | 66 | 1008.2 |
| 20260508100516 | 4 | 90 | 4.8 | 9.7 | 0.00 | 0.00 | 0.00 | 65 | 1008.2 |
| 20260508095536 | 4 | 90 | 3.2 | 4.8 | 0.00 | 0.00 | 0.00 | 63 | 1008.3 |
| 20260508094518 | 4 | 0.0 | 1.6 | 0.00 | 0.00 | 0.00 | 62 | 1008.4 | |
| 20260508093516 | 4 | 90 | 1.6 | 4.8 | 0.00 | 0.00 | 0.00 | 61 | 1008.4 |
| 20260508092518 | 4 | 0.0 | 0.0 | 0.00 | 0.00 | 0.00 | 61 | 1008.4 | |
| 20260508091516 | 4 | 0.0 | 0.0 | 0.00 | 0.00 | 0.00 | 60 | 1008.6 | |
| 20260508090536 | 5 | 0.0 | 0.0 | 0.00 | 0.00 | 0.00 | 61 | 1008.5 | |
| 20260508085516 | 5 | 0.0 | 0.0 | 0.00 | 0.00 | 0.00 | 60 | 1008.6 |